カタログに戻る

DELTA 1 DEB

運用中SSO
NORAD 12179·DEBRIS·🇺🇸 United States

打ち上げ Mar 5, 1978 から Vandenberg Space Force Base

Loading…

次のパス (今後24時間)

TLE

最新Source: Space-Track

元期: Sep 14, 2026, 02:53 UTC

1 12179U 78026U   26257.12066446  .00000333  00000-0  19674-3 0  9993
2 12179  99.1793 202.2450 0161623 249.0416 178.5383 14.08455413326449

AllMySatでDELTA 1 DEBをリアルタイム追跡

Download on the App Store